DELTA 1 R/B, 862

Orbit data source: Space-Track

DELTA 1 R/B, 862 is space debris in HEO originally from a launch on Wed, 19 Aug 1964 UTC launched from the Air Force Eastern Test Range (AFETR). Debris objects in space refer to the collection of defunct objects orbiting the Earth. Examples of debris include non-operational satellites, rocket bodies, and fragments generated from explosions, collisions, or faulty payload assembly.

Loading next visibility...
Identifier
862, 1964-047B
Orbit
HEO
Last TLE update
2 days ago
Origin
Manufacturer
ABL
Mission
Spacecraft
Bus & Motor
ALTAIR, Unknown motor
Mass
~38 kg wet, ~38 kg dry
Launch date (UTC)
1964-08-19 (61 years ago)
Launch vehicle
Unknown
Launch site
Air Force Eastern Test Range (AFETR)
Object type
Payload
Rocket body
Debris
Shape & HBR
Cyl, 1.5 m
Radar Cross Section
0.687 m², Medium (>0.1 m² and < 1m²)

Expand to show TLE details & history

TLE from 2 days ago
0 DELTA 1 R/B
1 00862U 64047B   25118.29844841 -.00000059  00000-0  00000-0 0  9999
2 00862  16.2111  88.9574 7134230 167.7915 229.6187  2.05100615249647
Epoch: 2025-04-28T07:09Z
Definitive object data (Epoch: 2025-04-28T07:09:45.942Z)
Latitude
-0.00022°
Longitude
125.01406°
Altitude
36,024.902 km
Speed
1.889 km/s
True Right ascension
05h 55m 52s
True Declination
0° 00' 01"
Sunlit
Object was in daylight at TLE epoch
Visualization TLE readout
Latitude
-9.2823°
Longitude
90.24658°
Altitude
30,523.859 km
Speed
2.524 km/s
Apparent Right ascension
03h 05m 53s
Apparent Declination
-15° 33' 12"
Sunlit
Object is in daylight
Visualization observer readout
Local Sidereal Time
09:01:09
Azimuth
257.222° W
Elevation
-9.019°
Doppler factor
1
Orbital elements
Apogee altitude
38,464.77 km
Perigee altitude
1,122.022 km
Semi-major axis
26,171.533 km
Eccentricity
0.713423
Inclination
16.2111°
RAAN
88.9574°
Arg. of periapsis
167.7915°
True anomaly
192.28838°
Mean anomaly
229.6187°
Eccentric anomaly
209.49404°
Mean motion
0.51262 °/min
BSTAR
Unknown
Orbital period
702.27 mins
Loading maneuver chart data...
Loading SW <> Apogee altitude chart data...
Loading historical data...
Loading historical data...
Loading historical data...
Loading historical data...
Loading historical data...
Loading historical data...
Loading historical data...
Other satellites on launch #47 in the year 1964 (1964-08-19 UTC)

DELTA 1 R/B Visibility forecast

Observer location: undefined°, undefined°

Span
Click to sort rows by Start time (UTC) header in descending order
Start Az.
Max El. time (UTC)
Max El. Az.
Max El.
End time (UTC)
End Az.
137 mins2025-04-30 18:18:37.056Z104.168° ESE2025-04-30 19:43:37.056Z104.678° ESE14.477°2025-04-30 20:35:37.056Z98.324° ESE
|